This is the latest recevied weather packets stored in our database for station/object 7M1JBF-11. If no packets are shown the sender has not sent any weather packets the latest 10 day(s).
| Time | Temp. | Humidity | Pressure | Rain* | Wind** | Luminosity | Snow |
|---|---|---|---|---|---|---|---|
| 1777878886 | 24.44° C | 100% | 994.9 hPa | 3.05 mm | - | - | - |
| 1777878284 | 25° C | 100% | 994.8 hPa | 3.05 mm | - | - | - |
| 1777877081 | 25° C | 100% | 994.6 hPa | 3.05 mm | - | - | - |
| 1777876480 | 25° C | 100% | 994.6 hPa | 3.05 mm | - | - | - |
| 1777875879 | 25.56° C | 100% | 994.8 hPa | 3.05 mm | - | - | - |
| 1777875277 | 25.56° C | 100% | 994.4 hPa | 3.05 mm | - | - | - |
| 1777874676 | 25.56° C | 100% | 994.5 hPa | 3.05 mm | - | - | - |
| 1777873473 | 25° C | 100% | 994.1 hPa | 3.05 mm | - | - | - |
| 1777872872 | 25° C | 100% | 994.1 hPa | 3.05 mm | - | - | - |
| 1777872271 | 25.56° C | 100% | 994.3 hPa | 3.05 mm | - | - | - |
| 1777871669 | 25.56° C | 100% | 994.4 hPa | 3.05 mm | - | - | - |
| 1777871068 | 25.56° C | 100% | 994.4 hPa | 3.05 mm | - | - | - |
| 1777870466 | 25.56° C | 100% | 994.3 hPa | 3.05 mm | - | - | - |
| 1777869264 | 26.67° C | 100% | 994.7 hPa | 3.05 mm | - | - | - |
| 1777868662 | 27.22° C | 100% | 994.9 hPa | 3.05 mm | - | - | - |
| 1777868061 | 27.22° C | 100% | 995 hPa | 3.05 mm | - | - | - |
| 1777867460 | 27.22° C | 100% | 995.1 hPa | 3.05 mm | - | - | - |
| 1777866858 | 27.22° C | 100% | 995.2 hPa | 3.05 mm | - | - | - |
| 1777866257 | 27.22° C | 100% | 995.5 hPa | 3.05 mm | - | - | - |
| 1777865656 | 27.22° C | 100% | 995.5 hPa | 3.05 mm | - | - | - |
| 1777865054 | 27.22° C | 100% | 995.2 hPa | 3.05 mm | - | - | - |
| 1777864453 | 27.78° C | 100% | 995.5 hPa | 3.05 mm | - | - | - |
| 1777863851 | 27.78° C | 100% | 995.6 hPa | 3.05 mm | - | - | - |
| 1777863250 | 27.78° C | 100% | 995.7 hPa | 3.05 mm | - | - | - |
| 1777860845 | 29.44° C | 100% | 995.7 hPa | 3.05 mm | - | - | - |
* Rain since midnight (hover to see other rain measurements)
** Current wind speed in m/s (hover to see current wind gust speed)